Weather Roundup
Issued by NWS Chicago, IL

Home | Current Version | Previous Version | Graphics & Text | Print | Product List | Glossary Off
Versions: 1 2 3 4 5 6 7 8 9 10 11 12 13 14 15 16 17 18 19 20 21 22 23 24 25 26 27 28 29 30 31 32 33 34 35 36 37 38 39 40 41 42 43 44 45 46 47 48 49 50

000
NZUS59 KLOT 190421
HRRLOT

CHICAGO AREA WEATHER ROUNDUP
NATIONAL WEATHER SERVICE CHICAGO/ROMEOVILLE IL
1100 PM CDT SAT APR 18 2015

NOTE: "FAIR" INDICATES FEW OR NO CLOUDS BELOW 12,000 FEET WITH NO
SIGNIFICANT WEATHER AND/OR OBSTRUCTIONS TO VISIBILITY.

* THESE STATIONS ARE NOT UNDER NWS QUALITY CONTROL. THEY ALSO MAY NOT
  REPORT WEATHER SUCH AS PRECIPITATION OR FOG.

ILZ005-006-012>014-019>023-190500-
NORTHEAST ILLINOIS

CITY           SKY/WX    TMP DP  RH WIND       PRES   REMARKS
OHARE          CLOUDY    49  34  56 NE8       29.99F
MIDWAY         CLOUDY    52  37  56 NE3       29.99F
AURORA         MOCLDY    53  33  46 E13       29.96F
LANSING*       CLOUDY    48  37  66 E6        29.99F
JOLIET*        MOCLDY    53  38  55 E8        29.97F
WAUKEGAN       PTCLDY    48  32  53 NE10      30.01F
DUPAGE AIRPORT MOCLDY    51  34  52 NE10      29.98F
WHEELING       PTCLDY    49  33  54 NE6       30.00F
KANKAKEE*      MOCLDY    48  39  69 NE8       29.97F
MORRIS*        MOCLDY    52  36  54 E7        29.94F
LEWIS AIRPORT* MOCLDY    51  36  56 E12       29.97F
NORTHERLY IS     N/A     48  38  68 N7          N/A
$$

WIZ051-052-058>065-066-070>072-190500-
SOUTHEAST WISCONSIN

CITY           SKY/WX    TMP DP  RH WIND       PRES   REMARKS
MILWAUKEE      PTCLDY    42  32  67 E3        30.05F
KENOSHA*       PTCLDY    47  32  56 NE12      30.02F
RACINE*        PTCLDY    44  32  62 NE8       30.05F
BURLINGTON     CLEAR     44  31  61 E9        30.02F
WAUKESHA       CLEAR     43  30  61 E6        30.04F
WEST BEND      CLEAR     43  30  61 CALM      30.05F
$$

INZ001>003-010>013-019-020-190500-
NORTHWEST INDIANA

CITY           SKY/WX    TMP DP  RH WIND       PRES   REMARKS
GARY*          CLOUDY    47  38  71 CALM      30.00F
MICHIGAN CITY* NOT AVBL
RENSSELAER*    NOT AVBL
VALPARAISO     CLOUDY    60  27  28 E16G25    30.00F
$$

LMZ740>746-190500-
SOUTHERN LAKE MICHIGAN

STATION/POSITION TIME  SKY/WX   TEMP WIND        PRES    VSBY
                                AIR  DIR/SP/G
                 (UTC)          (F)  (DEG/KT/KT) (MB)    (MI)
HARRISON CRIB    0400            45  360/  7/  8   N/A
BURNHAM HARBOR   0400            49  360/  6/ 10   N/A
CALUMET HARBOR   0300            46  350/  5/ 10   N/A
BURNS HARBOR     0300            43   CALM  /  2 1017.3S
MICHIGAN CITY    0400                 80/ 13/ 18   N/A
$$

ABBREVIATIONS USED IN REMARKS
   TC - TEMPERATURE IN CELSIUS
  WCI - WIND CHILL INDEX
   HX - HEAT INDEX
  VSB - VISIBILITY
$$


USA.gov is the U.S. government's official web portal to all federal, state and local government web resources and services.